Weather WX

World > North America > United States > Ohio

Roselawn, Ohio Regional Weather

Lat: 39.20N, Lon: 84.46W
Wx Zone: OHZ077
Warning FLW WEATHER ALERT - FLASH FLOOD WATCH (More Info. Click Here) Warning
Feedback

Roselawn, OH Regional Weather

Expires:201906161600;;165630
ASUS41 KCLE 161512
RWRCLE
OHIO REGIONAL WEATHER ROUNDUP
NATIONAL WEATHER SERVICE WILMINGTON, OH
1100 AM EDT SUN JUN 16 2019

NOTE: "FAIR" INDICATES FEW OR NO CLOUDS BELOW 12,000 FEET WITH NO
SIGNIFICANT WEATHER AND/OR OBSTRUCTIONS TO VISIBILITY.


OHZ042-051>053-060>062-070>072-077>081-161600-
  SOUTHWEST OHIO
  
CITY           SKY/WX    TMP DP  RH WIND       PRES   REMARKS
CINC-COVINGTON LGT RAIN  69  65  86 S12       29.92R                  
CINC-LUNKEN    FAIR      74  67  78 SW15G24   29.93R                  
HAMILTON       PTSUNNY   70  68  93 SW8       29.92R                  
DAYTON         CLOUDY    72  66  81 SW14      29.88R                  
WRIGHT-PAT AFB CLOUDY    71  67  88 SW15      29.87R                  
DAYTON GENERAL FAIR      73  65  75 SW14      29.89R                  
WILMINGTON     FAIR      72  68  87 SW17G24   29.89S                  
$$


SKY/WX - Weather  TMP - Temperature  DP - Dew Point  RH - Relative Humidity
WIND - Wind Direction/Speed PRES - Barometric Pressure VSB - Visibility
WCI - Wind Chill Index E13G22 Wind - East Wind 13 mph/Gusts of 22 mph